Location: Ballingbuur
(53.0000°N, 5.7667°E)
Time: 21:17:00
(UTC+00:00)

Cosmos 1766 Rocket - Pass Details

Date: 29 November 2020
Orbit: 605 x 633 km, 82.5° (Epoch: 24 January)

Event Time Altitude Azimuth Distance (km) Brightness Sun altitude
Exits shadow 04:58:03 56° 291° (WNW) 757 3.6 -21.1°
Drops below altitude 10° 05:02:23 10° 4° (N) 2,026 6.1 -20.4°
Sets 05:04:41 0° 9° (N) 2,935 7.0 -20.1°
